TAP209K LPPT-KJFK

Flight info

Callsign TAP209K
Flight time N/A
Altitude 38000
Route ELNUB DCT DETOX/M082F380 DCT 42N020W 43N030W 44N040W 44N050W/M082F400 DCT BOBTU DCT JAROM N56G LOMPI/N0463F400 N56G BRADD DCT PLYMM PARCH4
Aircraft A339/H-SDE1E2E3GHIJ1J3J5M1P2RWXYZ/LB2D1

Departure

Time N/A
Airport Lisbon Humberto Delgado Airport (LPPT)

Arrival

Time 2026-05-07 00:08
Airport John F. Kennedy International Airport (KJFK)
Time Latitude Longitude Altitude Speed Heading
2026-05-06 23:12 42.81302 -68.09106 39998 ft 399 kts 252°
2026-05-06 23:13 42.80212 -68.12556 40006 ft 399 kts 252°
2026-05-06 23:13 42.78038 -68.19468 39996 ft 398 kts 251°
2026-05-06 23:14 42.75850 -68.26390 39994 ft 398 kts 251°
2026-05-06 23:14 42.73669 -68.33249 39997 ft 398 kts 251°
2026-05-06 23:15 42.71482 -68.40118 40000 ft 398 kts 251°
2026-05-06 23:15 42.69288 -68.46976 39995 ft 396 kts 251°
2026-05-06 23:16 42.67089 -68.53836 39988 ft 397 kts 251°
2026-05-06 23:16 42.64907 -68.60651 39988 ft 396 kts 251°
2026-05-06 23:17 42.62707 -68.67484 39997 ft 396 kts 250°
2026-05-06 23:17 42.60498 -68.74329 39983 ft 395 kts 251°
2026-05-06 23:18 42.58295 -68.81151 39985 ft 395 kts 250°
2026-05-06 23:18 42.56090 -68.87933 39987 ft 396 kts 251°
2026-05-06 23:19 42.53881 -68.94755 39978 ft 395 kts 250°
2026-05-06 23:19 42.51671 -69.01520 39978 ft 394 kts 250°
2026-05-06 23:20 42.49445 -69.08330 39979 ft 394 kts 250°
2026-05-06 23:20 42.47228 -69.15074 39972 ft 393 kts 250°
2026-05-06 23:21 42.45020 -69.21802 39971 ft 393 kts 251°
2026-05-06 23:21 42.42797 -69.28558 39960 ft 394 kts 250°
2026-05-06 23:22 42.40575 -69.35311 39969 ft 393 kts 250°
2026-05-06 23:22 42.38350 -69.42006 39966 ft 394 kts 251°
2026-05-06 23:23 42.36115 -69.48757 39958 ft 393 kts 251°
2026-05-06 23:23 42.33876 -69.55495 39956 ft 393 kts 250°
2026-05-06 23:24 42.31637 -69.62196 39950 ft 393 kts 251°
2026-05-06 23:24 42.29394 -69.68924 39954 ft 393 kts 250°
2026-05-06 23:25 42.27145 -69.75628 39940 ft 393 kts 250°
2026-05-06 23:25 42.24966 -69.82113 39938 ft 393 kts 251°
2026-05-06 23:26 42.22715 -69.88821 39939 ft 394 kts 250°
2026-05-06 23:26 42.20461 -69.95491 39935 ft 393 kts 251°
2026-05-06 23:27 42.18207 -70.02200 39934 ft 392 kts 250°
2026-05-06 23:27 42.15947 -70.08867 39942 ft 392 kts 250°
2026-05-06 23:28 42.13673 -70.15514 39949 ft 392 kts 250°
2026-05-06 23:28 42.11413 -70.22165 39945 ft 393 kts 250°
2026-05-06 23:29 42.09122 -70.28851 39942 ft 392 kts 250°
2026-05-06 23:29 42.06863 -70.35470 39937 ft 390 kts 250°
2026-05-06 23:30 42.04597 -70.42052 39939 ft 389 kts 252°
2026-05-06 23:30 42.02497 -70.48737 39931 ft 388 kts 252°
2026-05-06 23:31 42.00399 -70.55422 39934 ft 387 kts 252°
2026-05-06 23:31 41.98317 -70.62041 39929 ft 386 kts 253°
2026-05-06 23:32 41.96267 -70.68529 39939 ft 387 kts 252°
2026-05-06 23:32 41.94174 -70.75186 39927 ft 387 kts 252°
2026-05-06 23:33 41.92076 -70.81778 39934 ft 385 kts 252°
2026-05-06 23:33 41.89968 -70.88392 39926 ft 386 kts 252°
2026-05-06 23:34 41.87871 -70.94991 39930 ft 386 kts 252°
2026-05-06 23:34 41.85783 -71.01569 39920 ft 385 kts 252°
2026-05-06 23:35 41.83687 -71.08129 39190 ft 386 kts 252°
2026-05-06 23:35 41.82627 -71.11443 38097 ft 396 kts 251°
2026-05-06 23:35 41.81532 -71.14855 37225 ft 398 kts 250°
2026-05-06 23:35 41.80443 -71.18229 36615 ft 396 kts 251°
2026-05-06 23:36 41.79355 -71.21601 35982 ft 396 kts 250°
2026-05-06 23:36 41.78266 -71.24976 35344 ft 395 kts 250°
2026-05-06 23:36 41.77169 -71.28378 34699 ft 394 kts 250°
2026-05-06 23:36 41.76065 -71.31742 34058 ft 394 kts 248°
2026-05-06 23:37 41.74824 -71.35010 33406 ft 396 kts 244°
2026-05-06 23:37 41.73422 -71.38184 32761 ft 397 kts 241°
2026-05-06 23:37 41.71872 -71.41226 32329 ft 393 kts 238°
2026-05-06 23:37 41.70219 -71.44074 31965 ft 389 kts 235°
2026-05-06 23:38 41.68439 -71.46776 31607 ft 385 kts 231°
2026-05-06 23:38 41.66551 -71.49311 31269 ft 382 kts 228°
2026-05-06 23:38 41.64571 -71.51653 30926 ft 380 kts 225°
2026-05-06 23:38 41.62555 -71.53922 30508 ft 378 kts 225°
2026-05-06 23:39 41.60557 -71.56162 30094 ft 375 kts 225°
2026-05-06 23:39 41.58575 -71.58375 29708 ft 372 kts 225°
2026-05-06 23:39 41.56593 -71.60593 29331 ft 368 kts 225°
2026-05-06 23:39 41.54650 -71.62768 28960 ft 364 kts 225°
2026-05-06 23:40 41.52710 -71.64933 28592 ft 361 kts 225°
2026-05-06 23:40 41.50779 -71.67070 28225 ft 359 kts 224°
2026-05-06 23:40 41.48879 -71.69186 27862 ft 356 kts 224°
2026-05-06 23:40 41.46998 -71.71278 27503 ft 353 kts 224°
2026-05-06 23:41 41.45112 -71.73371 27132 ft 352 kts 224°
2026-05-06 23:41 41.43229 -71.75455 26767 ft 350 kts 224°
2026-05-06 23:41 41.41331 -71.77568 26398 ft 347 kts 223°
2026-05-06 23:41 41.41142 -71.77777 26361 ft 347 kts 223°
2026-05-06 23:42 41.40012 -71.79022 26143 ft 346 kts 223°
2026-05-06 23:42 41.38417 -71.80779 25835 ft 344 kts 223°
2026-05-06 23:42 41.36578 -71.82811 25476 ft 343 kts 223°
2026-05-06 23:42 41.34764 -71.84808 25117 ft 341 kts 223°
2026-05-06 23:43 41.32928 -71.86832 24754 ft 340 kts 223°
2026-05-06 23:43 41.31118 -71.88829 24394 ft 338 kts 223°
2026-05-06 23:43 41.29289 -71.90850 24052 ft 354 kts 223°
2026-05-06 23:43 41.27335 -71.93012 23763 ft 378 kts 222°
2026-05-06 23:44 41.25294 -71.95260 23515 ft 386 kts 222°
2026-05-06 23:44 41.23221 -71.97531 23051 ft 385 kts 222°
2026-05-06 23:44 41.21178 -71.99764 22669 ft 381 kts 222°
2026-05-06 23:44 41.19156 -72.01976 22266 ft 378 kts 222°
2026-05-06 23:45 41.17123 -72.04201 21870 ft 374 kts 221°
2026-05-06 23:45 41.15115 -72.06395 21414 ft 372 kts 222°
2026-05-06 23:45 41.13145 -72.08551 21024 ft 369 kts 222°
2026-05-06 23:45 41.11274 -72.10785 20578 ft 363 kts 230°
2026-05-06 23:46 41.09816 -72.13515 20141 ft 359 kts 241°
2026-05-06 23:46 41.08824 -72.16578 19733 ft 356 kts 250°
2026-05-06 23:46 41.08045 -72.19682 19363 ft 355 kts 250°
2026-05-06 23:46 41.07275 -72.22798 18964 ft 354 kts 250°
2026-05-06 23:47 41.06519 -72.25862 18622 ft 350 kts 250°
2026-05-06 23:47 41.05764 -72.28918 18224 ft 347 kts 250°
2026-05-06 23:47 41.05016 -72.31937 17819 ft 345 kts 250°
2026-05-06 23:47 41.04278 -72.34905 17448 ft 342 kts 250°
2026-05-06 23:48 41.03535 -72.37895 17025 ft 340 kts 250°
2026-05-06 23:48 41.02796 -72.40865 16635 ft 337 kts 250°
2026-05-06 23:48 41.02072 -72.43760 16223 ft 335 kts 249°
2026-05-06 23:48 41.01342 -72.46685 15827 ft 332 kts 250°
2026-05-06 23:49 41.00620 -72.49566 15433 ft 330 kts 249°
2026-05-06 23:49 40.99902 -72.52432 15021 ft 329 kts 249°
2026-05-06 23:49 40.99184 -72.55292 14648 ft 325 kts 249°
2026-05-06 23:49 40.98469 -72.58124 14260 ft 323 kts 249°
2026-05-06 23:50 40.97769 -72.60908 13918 ft 320 kts 249°
2026-05-06 23:50 40.96368 -72.66474 13262 ft 317 kts 248°
2026-05-06 23:50 40.95668 -72.69251 12786 ft 318 kts 248°
2026-05-06 23:51 40.94960 -72.72049 12352 ft 315 kts 248°
2026-05-06 23:51 40.94263 -72.74799 12089 ft 313 kts 248°
2026-05-06 23:51 40.93703 -72.77021 12066 ft 298 kts 248°
2026-05-06 23:51 40.93082 -72.78903 12059 ft 281 kts 236°
2026-05-06 23:52 40.91867 -72.80839 12058 ft 265 kts 222°
2026-05-06 23:52 40.90444 -72.82286 12060 ft 252 kts 217°
2026-05-06 23:52 40.89022 -72.83659 11857 ft 254 kts 217°
2026-05-06 23:52 40.87582 -72.85047 11483 ft 254 kts 217°
2026-05-06 23:53 40.86169 -72.86409 11120 ft 253 kts 217°
2026-05-06 23:53 40.84732 -72.87790 10750 ft 253 kts 217°
2026-05-06 23:53 40.83311 -72.89156 10383 ft 252 kts 217°
2026-05-06 23:53 40.81903 -72.90506 10018 ft 252 kts 216°
2026-05-06 23:54 40.80479 -72.91871 9648 ft 252 kts 216°
2026-05-06 23:54 40.79048 -72.93233 9277 ft 253 kts 216°
2026-05-06 23:54 40.77644 -72.94590 9070 ft 248 kts 216°
2026-05-06 23:54 40.76281 -72.95877 9061 ft 239 kts 216°
2026-05-06 23:55 40.74923 -72.97189 9063 ft 242 kts 216°
2026-05-06 23:55 40.73581 -72.98529 9044 ft 243 kts 222°
2026-05-06 23:55 40.72665 -73.00390 8729 ft 252 kts 247°
2026-05-06 23:55 40.72282 -73.02680 8367 ft 258 kts 255°
2026-05-06 23:56 40.72029 -73.05029 7992 ft 261 kts 256°
2026-05-06 23:56 40.71834 -73.07403 7622 ft 263 kts 257°
2026-05-06 23:56 40.71634 -73.09821 7247 ft 264 kts 257°
2026-05-06 23:56 40.71419 -73.12215 6879 ft 265 kts 257°
2026-05-06 23:57 40.71197 -73.14612 6472 ft 263 kts 258°
2026-05-06 23:57 40.70981 -73.16959 6082 ft 254 kts 257°
2026-05-06 23:57 40.70765 -73.19241 5702 ft 246 kts 257°
2026-05-06 23:57 40.70564 -73.21460 5360 ft 247 kts 257°
2026-05-06 23:58 40.70348 -73.23700 5088 ft 246 kts 257°
2026-05-06 23:58 40.70160 -73.25900 5051 ft 236 kts 257°
2026-05-06 23:58 40.69980 -73.28048 5056 ft 238 kts 260°
2026-05-06 23:58 40.70262 -73.30266 5041 ft 255 kts 287°
2026-05-06 23:59 40.71180 -73.32283 5052 ft 261 kts 296°
2026-05-06 23:59 40.72224 -73.34267 5049 ft 263 kts 296°
2026-05-06 23:59 40.73277 -73.36240 5044 ft 263 kts 297°
2026-05-06 23:59 40.74247 -73.38036 5049 ft 262 kts 297°
2026-05-07 00:00 40.75302 -73.40035 5049 ft 263 kts 298°
2026-05-07 00:00 40.76374 -73.42017 5039 ft 262 kts 298°
2026-05-07 00:00 40.77430 -73.43988 5041 ft 264 kts 297°
2026-05-07 00:00 40.78120 -73.45279 5022 ft 258 kts 298°
2026-05-07 00:01 40.79522 -73.47864 4698 ft 257 kts 297°
2026-05-07 00:01 40.80550 -73.49807 4443 ft 256 kts 298°
2026-05-07 00:01 40.81561 -73.51736 4193 ft 255 kts 298°
2026-05-07 00:01 40.82346 -73.53249 3995 ft 255 kts 297°
2026-05-07 00:02 40.83384 -73.55183 3701 ft 252 kts 297°
2026-05-07 00:02 40.84247 -73.57106 3426 ft 233 kts 279°
2026-05-07 00:02 40.84307 -73.59098 3169 ft 212 kts 249°
2026-05-07 00:02 40.83539 -73.60619 3053 ft 197 kts 219°
2026-05-07 00:03 40.82647 -73.61417 3052 ft 188 kts 213°
2026-05-07 00:03 40.81320 -73.62418 3042 ft 188 kts 212°
2026-05-07 00:03 40.80172 -73.63274 3041 ft 189 kts 214°
2026-05-07 00:03 40.79033 -73.64161 3038 ft 185 kts 213°
2026-05-07 00:04 40.77961 -73.64996 3012 ft 175 kts 212°
2026-05-07 00:04 40.77002 -73.65734 2854 ft 171 kts 211°
2026-05-07 00:04 40.75946 -73.66551 2606 ft 161 kts 212°
2026-05-07 00:04 40.75014 -73.67288 2373 ft 153 kts 212°
2026-05-07 00:05 40.74122 -73.67979 2176 ft 146 kts 212°
2026-05-07 00:05 40.73257 -73.68660 1976 ft 139 kts 212°
2026-05-07 00:05 40.72704 -73.69091 1843 ft 134 kts 211°
2026-05-07 00:05 40.71886 -73.69729 1675 ft 134 kts 213°
2026-05-07 00:06 40.71090 -73.70357 1507 ft 134 kts 211°
2026-05-07 00:06 40.70294 -73.70977 1349 ft 133 kts 211°
2026-05-07 00:06 40.69504 -73.71592 1174 ft 133 kts 211°
2026-05-07 00:06 40.68711 -73.72212 1006 ft 132 kts 211°
2026-05-07 00:07 40.67908 -73.72840 820 ft 132 kts 211°
2026-05-07 00:07 40.67121 -73.73455 640 ft 132 kts 210°
2026-05-07 00:07 40.66343 -73.74064 468 ft 131 kts 209°
2026-05-07 00:07 40.65564 -73.74673 293 ft 130 kts 209°
2026-05-07 00:08 40.64804 -73.75273 152 ft 125 kts 208°
2026-05-07 00:08 40.64064 -73.75850 34 ft 117 kts 208°
2026-05-07 00:08 40.63550 -73.76246 31 ft 50 kts 210°
2026-05-07 00:08 40.63307 -73.76476 31 ft 34 kts 229°
2026-05-07 00:09 40.63242 -73.76715 31 ft 26 kts 288°
2026-05-07 00:09 40.63329 -73.76921 31 ft 25 kts 300°
2026-05-07 00:09 40.63419 -73.77115 31 ft 24 kts 301°
2026-05-07 00:09 40.63503 -73.77304 31 ft 23 kts 301°
2026-05-07 00:10 40.63586 -73.77493 31 ft 23 kts 298°
2026-05-07 00:10 40.63667 -73.77644 31 ft 14 kts 301°
2026-05-07 00:10 40.63651 -73.77701 31 ft 8 kts 211°
2026-05-07 00:10 40.63588 -73.77760 31 ft 13 kts 214°
2026-05-07 00:11 40.63506 -73.77828 31 ft 14 kts 210°
2026-05-07 00:11 40.63423 -73.77906 31 ft 14 kts 231°
2026-05-07 00:11 40.63410 -73.78036 31 ft 15 kts 285°
2026-05-07 00:11 40.63463 -73.78161 31 ft 16 kts 301°
2026-05-07 00:12 40.63523 -73.78294 30 ft 16 kts 301°
2026-05-07 00:12 40.63589 -73.78440 31 ft 20 kts 300°
2026-05-07 00:12 40.63663 -73.78602 31 ft 20 kts 301°
2026-05-07 00:12 40.63737 -73.78765 31 ft 20 kts 300°
2026-05-07 00:13 40.63810 -73.78925 31 ft 21 kts 300°
2026-05-07 00:13 40.63888 -73.79099 31 ft 22 kts 302°
2026-05-07 00:13 40.63959 -73.79232 31 ft 9 kts 338°
2026-05-07 00:13 40.64024 -73.79192 31 ft 13 kts 35°
2026-05-07 00:14 40.64097 -73.79105 31 ft 12 kts 44°
2026-05-07 00:14 40.64148 -73.79044 31 ft 4 kts 22°
2026-05-07 00:14 40.64173 -73.79055 31 ft 5 kts 335°
2026-05-07 00:14 40.64209 -73.79076 31 ft 1 kts 337°